Location: Darr Branch
(32.1532°N, 97.3853°W)
Time: 10:43:50
(UTC+00:00)

Cosmos 1025 Rocket - Pass Details

Date: 18 November 2025
Orbit: 586 x 610 km, 82.5° (Epoch: 07 December)

Event Time Altitude Azimuth Distance (km) Brightness Sun altitude
Rises 12:33:51 0° 217° (SW) 2,856 6.3 -6.3°
Reaches altitude 10° 12:36:30 10° 233° (SW) 1,958 5.3 -5.8°
Maximum altitude 12:39:48 21° 283° (WNW) 1,382 4.3 -5.1°
Drops below altitude 10° 12:43:07 10° 333° (NNW) 1,967 5.2 -4.5°
Sets 12:45:48 0° 349° (N) 2,874 6.2 -3.9°
